Location: Newark
(49.3000°N, 9.4667°E)
Time: 02:53:06
(UTC+00:00)

Tiros 1 - Pass Details

Date: 27 May 2019
Orbit: 631 x 664 km, 48.4° (Epoch: 16 June)

Event Time Altitude Azimuth Distance (km) Brightness Sun altitude
Rises 10:13:48 0° 253° (WSW) 2,922 10.4 59.1°
Reaches altitude 10° 10:16:07 10° 251° (WSW) 2,018 9.8 59.3°
Maximum altitude 10:20:44 71° 168° (SSE) 678 9.5 59.7°
Drops below altitude 10° 10:25:25 10° 85° (E) 2,041 10.0 60.0°
Sets 10:27:47 0° 83° (E) 2,958 10.7 60.2°
